Volver al catálogo

COSMOS 2251 DEB

ActivoLEO
NORAD 34007·DEBRIS·🇷🇺 Russia

Lanzado Jun 16, 1993 desde Plesetsk Cosmodrome

Loading…

Próximos Pases (próximas 24 horas)

TLE

ActualizadoSource: Space-Track

Época: Sep 14, 2026, 05:33 UTC

1 34007U 93036GS  26257.23191615  .00001847  00000-0  33332-3 0  9992
2 34007  74.0179 175.6967 0047161 240.7675 118.8774 14.66556369931162

Sigue COSMOS 2251 DEB en tiempo real con AllMySat

Download on the App Store